Torna al catalogo

BREEZE-M R/B

AttivoHEO
NORAD 28998·ROCKET BODY·🇷🇺 Russia

Lanciato Jun 6, 2003 da Baikonur Cosmodrome

Loading…

Prossimi Passaggi (prossime 24 ore)

TLE

In scadenzaSource: Space-Track

Epoca: Aug 30, 2026, 18:15 UTC

1 28998U 03024C   26242.76103580 -.00000051  00000-0  00000+0 0  9997
2 28998  16.7268 124.3462 5089861  86.8140  37.6877  1.82403886 87546

Traccia BREEZE-M R/B in tempo reale con AllMySat

Download on the App Store